Location: Olsztyn
(53.7767°N, 20.4765°E)
Time: 07:52:45
(UTC+02:00)

Tiros 1 - All Passes

Search period start: 24 May 2025 00:00
Search period end: 03 June 2025 00:00
Orbit: 620 x 651 km, 48.4° (Epoch: 23 May)

Date Brightness Start Highest point End Pass type
(mag) Time Alt. Az. Time Alt. Az. Time Alt. Az.
24 May - 16:06:00 10° S 16:08:48 16° SE 16:11:37 10° ESE daylight
24 May - 17:45:42 10° SW 17:49:52 35° SSE 17:54:04 10° E daylight
24 May - 19:26:57 10° WSW 19:31:17 42° S 19:35:40 10° ESE daylight
24 May - 21:08:46 10° W 21:12:36 26° SSW 21:16:28 10° SSE daylight
25 May - 16:26:57 10° SSW 16:30:38 24° SSE 16:34:21 10° E daylight
25 May - 18:07:36 10° WSW 18:11:55 42° S 18:16:15 10° ESE daylight
25 May - 19:49:07 10° W 19:53:21 37° SSW 19:57:37 10° SE daylight
25 May - 21:31:23 10° WSW 21:34:28 18° SSW 21:37:34 10° S visible
26 May - 15:09:12 10° S 15:11:36 14° SE 15:13:59 10° ESE daylight
26 May - 16:48:30 10° SW 16:52:35 33° SSE 16:56:42 10° E daylight
26 May - 18:29:39 10° WSW 18:34:00 43° S 18:38:22 10° ESE daylight
26 May - 20:11:24 10° W 20:15:21 28° SSW 20:19:19 10° SE daylight
26 May - 21:55:18 10° SW 21:56:12 11° SW 21:57:08 10° SSW visible
27 May - 15:29:54 10° SSW 15:33:24 22° SSE 15:36:54 10° E daylight
27 May - 17:10:20 10° WSW 17:14:37 40° S 17:18:56 10° ESE daylight
27 May - 18:51:48 10° W 18:56:04 39° S 19:00:21 10° ESE daylight
27 May - 20:33:54 10° WSW 20:37:14 20° SSW 20:40:35 10° SSE daylight
28 May - 14:12:35 10° SSE 14:14:23 12° SE 14:16:11 10° ESE daylight
28 May - 15:51:19 10° SW 15:55:19 31° SSE 15:59:21 10° E daylight
28 May - 17:32:21 10° WSW 17:36:41 43° S 17:41:03 10° ESE daylight
28 May - 19:14:02 10° W 19:18:05 31° SSW 19:22:08 10° SE daylight
28 May - 20:57:08 10° WSW 20:59:00 12° SW 21:00:53 10° SSW daylight
29 May - 14:32:52 10° SSW 14:36:09 20° SSE 14:39:27 10° ESE daylight
29 May - 16:13:05 10° WSW 16:17:19 39° S 16:21:35 10° E daylight
29 May - 17:54:28 10° WSW 17:58:46 40° S 18:03:04 10° ESE daylight
29 May - 19:36:28 10° W 19:40:00 22° SSW 19:43:33 10° SSE daylight
30 May - 13:16:32 10° SSE 13:17:12 10° SE 13:17:52 10° SE daylight
30 May - 14:54:09 10° SW 14:58:03 28° SSE 15:01:57 10° E daylight
30 May - 16:35:04 10° WSW 16:39:23 43° S 16:43:44 10° ESE daylight
30 May - 18:16:41 10° W 18:20:48 33° SSW 18:24:55 10° SE daylight
30 May - 19:59:22 10° WSW 20:01:48 14° SW 20:04:13 10° S daylight
31 May - 13:35:54 10° S 13:38:55 18° SSE 13:41:56 10° ESE daylight
31 May - 15:15:50 10° SW 15:20:02 37° SSE 15:24:14 10° E daylight
31 May - 16:57:09 10° WSW 17:01:27 41° S 17:05:46 10° ESE daylight
31 May - 18:39:02 10° W 18:42:44 24° SSW 18:46:27 10° SSE daylight
01 Jun - 13:57:00 10° SSW 14:00:46 26° SSE 14:04:33 10° E daylight
01 Jun - 15:37:46 10° WSW 15:42:04 42° S 15:46:24 10° ESE daylight
01 Jun - 17:19:20 10° W 17:23:30 35° SSW 17:27:40 10° SE daylight
01 Jun - 19:01:45 10° WSW 19:04:34 16° SW 19:07:23 10° S daylight
02 Jun - 12:39:00 10° S 12:41:41 15° SE 12:44:21 10° ESE daylight
02 Jun - 14:18:36 10° SW 14:22:44 34° SSE 14:26:52 10° E daylight
02 Jun - 15:59:50 10° WSW 16:04:08 42° S 16:08:28 10° ESE daylight
02 Jun - 17:41:38 10° W 17:45:28 27° SSW 17:49:18 10° SSE daylight
